Location: Austin, TX
(30.3000°N, 97.7500°W)
Time: 11:42:57
(UTC-05:00)

Daily predictions for brighter satellites

Satellite Brightness Start Highest point End
(mag) Time Altitude Azimuth Time Altitude Azimuth Time Altitude Azimuth
Cosmos 1315 Rocket 3.8 20:54:18 10° SSE 20:57:41 27° E 21:01:06 10° NE
ATLAS 3B R/B 3.7 20:53:39 10° SW 21:01:01 58° WNW 21:08:11 10° NNE
Cosmos 1464 Rocket 4.3 20:55:49 10° N 21:01:58 51° E 21:08:06 10° SSE
ISS -1.7 21:03:20 10° SE 21:03:47 10° SE 21:04:14 10° ESE
H-2A R/B 4.0 21:05:53 10° S 21:09:39 45° W 21:13:26 10° NNW
Cosmos 2242 Rocket 4.2 21:09:17 10° NNE 21:13:25 36° E 21:17:29 10° SSE
USA 238 4.5 21:09:45 10° SW 21:16:32 58° WNW 21:23:24 10° NNE
Cosmos 1707 Rocket 3.7 21:12:48 10° N 21:17:13 79° W 21:21:34 10° S
Cosmos 923 Rocket 4.0 21:12:24 10° NNW 21:17:41 80° ENE 21:22:57 10° SSE
Resurs 01 Rocket 1.7 21:14:08 10° S 21:18:31 79° WSW 21:22:57 10° NNW
Cosmos 724 4.4 21:13:08 10° SSW 21:19:20 84° ESE 21:25:30 10° NNE
Spot 2 Rocket 3.5 21:14:53 10° SSE 21:19:58 88° ENE 21:25:06 10° NNW
Cosmos 2082 Rocket 2.5 21:14:41 10° N 21:20:10 49° ENE 21:25:07 13° SE
Cosmos 1633 Rocket 3.6 21:16:09 10° SSW 21:20:29 63° W 21:24:51 10° N
In-Cosmos 22 Rocket 4.4 21:15:16 10° S 21:20:50 57° E 21:26:31 10° NNE
YAOGAN 6 3.9 21:22:38 15° ESE 21:24:46 25° ENE 21:27:50 10° NNE
CZ-2D R/B 4.1 21:22:32 10° S 21:26:18 52° W 21:30:07 10° NNW
Cosmos 1939 Rocket 3.1 21:29:42 14° SSE 21:33:08 54° ENE 21:37:12 10° N
OAO 2 Rocket 3.9 21:30:06 10° WNW 21:35:01 52° N 21:39:28 12° E
NOSS 3-2 (A) 3.5 21:29:49 10° SSW 21:35:40 83° WNW 21:42:00 10° NNE
GPS 2-04 Rocket1 2.7 21:32:42 10° WSW 21:36:22 67° NNW 21:39:53 10° ENE
Cosmos 1816 Rocket 4.5 21:30:21 10° S 21:36:27 62° E 21:42:30 10° NNE
Cosmos 1933 Rocket 3.4 21:32:09 10° S 21:36:27 79° E 21:40:48 10° N
Cosmos 1833 Rocket 2.7 21:32:19 10° NNW 21:37:56 69° ENE 21:42:21 17° SSE
Meteor 2-10 Rocket 3.8 21:33:44 10° N 21:39:31 65° E 21:44:36 13° SSE
Milstar 3 3.9 21:28:11 10° SW 21:40:50 46° SSE 21:47:21 14° E
Cosmos 1933 3.3 21:38:02 10° N 21:42:01 61° E 21:44:39 20° SSE
Cosmos 1892 2.9 21:39:50 16° SSE 21:42:41 47° E 21:46:24 10° NNE
Aurora 2 Rocket 3.0 21:38:22 10° WSW 21:42:52 38° S 21:44:27 26° SE
Cosmos 2112 Rocket 4.1 21:40:18 10° NNW 21:45:40 86° WSW 21:50:09 15° SSE
Cosmos 1862 Rocket 3.7 21:41:14 10° N 21:45:40 59° E 21:48:32 21° SSE
Envisat 3.1 21:41:34 10° S 21:46:38 76° WSW 21:51:43 10° NNW
Cosmos 1898 Rocket 3.9 21:41:39 10° SSW 21:46:52 66° WNW 21:52:08 10° N
Cosmos 1680 Rocket 3.8 21:43:38 10° NNW 21:48:54 67° WSW 21:53:48 12° S
USA 215 4.2 21:45:39 16° E 21:50:15 36° NE 21:56:07 10° NNW
NOSS 3-2 (C) 3.5 21:47:50 10° SSW 21:53:42 82° WNW 22:00:03 10° NNE
Spot 1 4.3 21:51:33 24° SSE 21:54:14 64° ENE 21:59:02 10° N
Helios 1B rocket 2.6 21:50:09 10° N 21:54:15 74° WNW 21:58:19 10° SSW
PSLV R/B 4.0 21:52:03 10° WNW 21:54:55 35° SW 21:55:34 31° S
Cosmos 1346 Rocket 3.6 21:51:26 10° NNE 21:55:00 32° E 21:55:37 30° E
SL-19 R/B 4.3 21:52:17 15° SSE 21:57:03 84° WSW 22:02:56 10° NNW
Delta 168 3.6 21:54:41 10° WSW 21:58:39 44° S 22:00:45 30° ESE
Cosmos 2346 Rocket 4.3 21:53:24 10° S 21:59:24 74° E 22:05:26 10° N
Cosmos 990 Rocket 4.0 21:54:21 10° SSW 21:59:31 84° WNW 22:04:45 10° NNE
EO 1 Delta rocket 4.3 21:59:20 26° SSE 22:02:10 62° ENE 22:08:14 10° N
USA 186 4.2 22:01:12 10° WSW 22:02:22 13° W 22:03:36 10° WNW
GPS 2-15 Rocket1 4.5 21:59:24 10° SW 22:02:58 22° S 22:03:09 22° S
Cosmos 1943 Rocket 3.2 22:05:39 25° E 22:05:39 25° E 22:09:40 10° NE
Helios 1A 3.0 22:03:01 25° S 22:05:23 75° WSW 22:09:34 10° NNW
CZ-4B DEB 2.3 22:05:25 77° SE 22:05:33 81° ENE 22:08:29 10° N
COSMOS 2487 2.6 22:03:10 10° NNW 22:06:42 72° WSW 22:07:47 41° S
H-2A R/B 3.5 22:05:54 20° E 22:06:51 21° ENE 22:10:50 10° NNE
Cosmos 2369 Rocket 2.2 22:06:05 12° S 22:11:16 59° ESE 22:16:50 10° NNE
DNEPR-1 R/B 4.4 22:17:24 40° ESE 22:17:24 40° ESE 22:21:58 10° NE
Cosmos 1703 Rocket 3.6 22:17:46 10° N 22:22:05 54° E 22:22:20 53° E
CENTAUR R/B 2.5 22:19:50 30° S 22:22:24 50° ESE 22:28:32 10° NE
Delta 2 Rocket 4.4 22:19:08 10° W 22:26:03 67° S 22:29:45 35° ESE
Cosmos 1782 4.3 22:22:48 10° NNE 22:25:11 24° NE 22:25:11 24° NE
Okean 1-7 3.8 22:22:12 10° NNE 22:25:54 37° ENE 22:25:54 37° ENE
Hubble Space Telescope 1.5 22:26:57 10° W 22:30:18 40° SW 22:30:18 40° SW
Meteor 2-3 Rocket 4.5 22:25:26 10° SSW 22:31:02 53° W 22:36:36 10° N
Cosmos 1869 Rocket 3.5 22:34:39 61° SSW 22:35:21 81° W 22:39:42 10° N
COSMOS 2455 3.0 22:29:32 10° SSW 22:35:30 71° WNW 22:41:31 10° NNE
Cosmos 2221 Rocket 3.8 22:34:24 10° N 22:38:18 54° NE 22:38:18 54° NE
ISS -1.6 22:36:48 10° WSW 22:38:01 20° WSW 22:38:01 20° WSW
Cosmos 1634 Rocket 4.1 22:44:05 10° N 22:50:21 72° W 22:52:40 41° SSW
SPOT 5 2.9 22:51:09 74° SE 22:51:34 80° ENE 22:56:56 10° N
ATLAS 5 CENTAUR R/B 4.2 22:49:26 10° N 22:53:38 19° NE 22:54:47 18° ENE
Nimbus 7 Rocket 4.2 22:49:48 10° NNE 22:55:42 86° ESE 22:56:51 60° S
YAOGAN 11 4.3 22:56:18 71° N 22:56:18 71° N 23:00:22 10° N
Terra 3.4 22:57:36 24° NE 22:57:36 24° NE 23:00:18 10° NNE
Nadezhda 4 Rocket 4.2 23:01:48 52° ENE 23:01:48 52° ENE 23:07:22 10° NNE
ARGOS 3.2 23:02:35 63° SW 23:03:08 67° WSW 23:08:29 10° NNW
ERS-1 Rocket 4.0 23:03:12 34° SW 23:04:18 38° W 23:08:58 10° NNW
SPOT 1/Viking Rocket 3.5 23:04:50 73° NNE 23:04:50 73° NNE 23:09:40 10° N
Tiangong 2 4.2 23:07:50 10° NNW 23:08:44 14° N 23:08:44 14° N
Cosmos 1825 4.0 23:12:33 30° NW 23:12:33 30° NW 23:14:51 10° N
H-2A ROCKET BODY 2.7 23:07:57 10° W 23:37:05 - ESE 23:11:45 63° SSW
SL-08 RB Rocket 4.4 23:15:09 52° WNW 23:15:09 52° WNW 23:19:09 10° NNW
Lacrosse 5 rocket 3.7 23:19:48 16° N 23:19:48 16° N 23:20:51 10° NNE
OAO 2 Rocket 4.2 23:15:00 10° WNW 23:18:24 44° W 23:18:24 44° W
Cosmos 2344 3.5 23:12:55 10° SSW 23:20:42 81° WNW 23:28:46 10° NNE
H-2A R/B 4.4 23:23:41 16° NNE 23:23:41 16° NNE 23:24:44 10° NNE
Cosmos 2279 Rocket 4.3 23:22:50 10° NNW 23:28:56 59° W 23:29:28 57° WSW
USA 215 3.5 23:33:00 53° SW 23:33:00 53° SW 23:39:24 10° NW
Lacrosse 4 Rocket 3.8 23:40:24 10° N 23:42:08 20° N 23:42:08 20° N
H-2A R/B 3.3 23:46:32 37° W 23:46:32 37° W 23:50:58 10° NNW
Cosmos 1943 Rocket 3.7 23:47:03 27° W 23:48:40 32° WNW 23:53:37 10° N
Meteor 1-27 Rocket 4.4 23:44:58 10° NNW 23:49:33 52° NW 23:49:33 52° NW
